map of AEY home
AEY - Airport
Location
City:  Akureyri, Iceland
Name:Akureyri Airport
ICAO:BIAR
IATA:AEY

Details
Type:Airport (Aerodrome, Airfield)
Latitude:6539'31"N (65.658611)
Longitude:1804'20"W (-18.072221)
Elevation:6 ft (2 m)
Variation:11.81W (WMM2015v2 magnetic declination)
0.32 annual change
Runways:1
Longest:6365 × 148 ft (1940 × 45 m), paved

Time
Time Zone:UTC+0
Local Time:

Weather
METAR:BIAR 041400Z 15005KT 9999 FEW036 M09/M11 Q1013
TAF:BIAR 041358Z 0415/0515 18005KT 9999 FEW040 SCT060 TXM06/0515Z TNM12/0421Z
BECMG 0510/0513 12012KT

Related Locations
Nearby:
Farthest:NZTB: 11802 mi / 18994 km
Terra Nova Bay [Mario Zucchelli Station], AQ

Find:

   beyond  
but within

Other Information
Maps:
NOTAMs:
Links:
Sources:

  
  • flag of Iceland
  

Sectional Chart

Flight Planning
at skyvector.com

Satellite Image

Google Maps Satellite view

 

Copyright © 2004-2019 Karl L. Swartz. All rights reserved.
The Great Circle Mapper name and logo are trademarks of the Great Circle Mapper.
All other trademarks mentioned herein belong to their respective owners.
Please see credits for attibutions and further copyright information.

  Follow gcmap on Facebook Follow gcmap on Twitter GCmap on LinkedIn

hCard Microformat

Geo Microformat